GSAT-16

Last updated on Sat Oct 25 2025 00:02:50 GMT+0000 (Coordinated Universal Time)

1 40332U 14078A 25297.58100384 .00000097 00000+0 00000+0 0 9990 2 40332 0.0168 193.7166 0004810 292.6044 171.1530 1.00271240 39740
UTC large
Height (km)
Speed (km/s)
/
Latitude / Longitude
Inclination (degrees)
Orbital Period (minutes)
Azimuth
Elevation
Range (km)
Doppler Factor

Next 0 passes for location: London (51.5072 / 0.1276)

Sorry there are no passes over London.